EFW19YZ LFBD-EGKK

Flight info

Callsign EFW19YZ
Flight time N/A
Altitude 34000
Route CNA6E CNA DCT MANAK UY110 REN UP87 REVTU UP88 VASUX VASUX1G
Aircraft A321/M-SDE3FGIJ1KRWXY/SB1

Departure

Time 2026-05-01 15:04
Airport Bordeaux–Mérignac Airport (LFBD)

Arrival

Time N/A
Airport London Gatwick Airport (EGKK)
Time Latitude Longitude Altitude Speed Heading
2026-05-01 14:33 44.83324 -0.70237 165 ft 0 kts 135°
2026-05-01 14:54 44.83340 -0.70256 155 ft 4 kts 154°
2026-05-01 14:54 44.83364 -0.70264 155 ft 4 kts 197°
2026-05-01 14:54 44.83379 -0.70254 155 ft 0 kts 224°
2026-05-01 14:56 44.83374 -0.70260 155 ft 4 kts 225°
2026-05-01 14:56 44.83366 -0.70322 155 ft 11 kts 287°
2026-05-01 14:57 44.83325 -0.70429 155 ft 16 kts 225°
2026-05-01 14:57 44.83108 -0.70737 155 ft 24 kts 226°
2026-05-01 14:57 44.82999 -0.70894 155 ft 21 kts 225°
2026-05-01 14:58 44.82966 -0.71057 151 ft 8 kts 287°
2026-05-01 14:58 44.82971 -0.71078 151 ft 0 kts 288°
2026-05-01 14:59 44.82972 -0.71080 151 ft 2 kts 288°
2026-05-01 14:59 44.82985 -0.71138 151 ft 11 kts 288°
2026-05-01 14:59 44.83015 -0.71278 153 ft 18 kts 283°
2026-05-01 15:00 44.83054 -0.71468 155 ft 13 kts 287°
2026-05-01 15:00 44.83088 -0.71622 155 ft 19 kts 287°
2026-05-01 15:00 44.83127 -0.71814 156 ft 21 kts 286°
2026-05-01 15:01 44.83166 -0.72002 155 ft 19 kts 278°
2026-05-01 15:01 44.83089 -0.72114 155 ft 18 kts 198°
2026-05-01 15:01 44.83009 -0.72210 156 ft 15 kts 273°
2026-05-01 15:01 44.83035 -0.72356 157 ft 17 kts 285°
2026-05-01 15:02 44.83081 -0.72528 154 ft 21 kts 290°
2026-05-01 15:02 44.83108 -0.72661 153 ft 22 kts 284°
2026-05-01 15:02 44.83125 -0.72900 154 ft 8 kts 277°
2026-05-01 15:02 44.83150 -0.72896 154 ft 4 kts 68°
2026-05-01 15:03 44.83146 -0.72877 154 ft 1 kts 107°
2026-05-01 15:03 44.83144 -0.72867 154 ft 3 kts 107°
2026-05-01 15:03 44.83081 -0.72570 154 ft 68 kts 107°
2026-05-01 15:03 44.82880 -0.71625 158 ft 131 kts 106°
2026-05-01 15:04 44.82578 -0.70209 473 ft 152 kts 109°
2026-05-01 15:04 44.82265 -0.68805 1250 ft 151 kts 110°
2026-05-01 15:04 44.81799 -0.67402 1622 ft 170 kts 127°
2026-05-01 15:04 44.80898 -0.66181 1886 ft 192 kts 146°
2026-05-01 15:05 44.79612 -0.65457 2150 ft 211 kts 170°
2026-05-01 15:05 44.78066 -0.65641 2250 ft 242 kts 197°
2026-05-01 15:05 44.76625 -0.67038 2660 ft 261 kts 230°
2026-05-01 15:05 44.75901 -0.69399 3348 ft 269 kts 263°
2026-05-01 15:06 44.76118 -0.72020 4071 ft 274 kts 287°
2026-05-01 15:06 44.77021 -0.74385 4782 ft 279 kts 311°
2026-05-01 15:06 44.78573 -0.76016 5455 ft 282 kts 338°
2026-05-01 15:06 44.80488 -0.76563 6159 ft 282 kts 356°
2026-05-01 15:07 44.82457 -0.76777 6818 ft 286 kts 355°
2026-05-01 15:07 44.84455 -0.76987 7466 ft 290 kts 355°
2026-05-01 15:07 44.86477 -0.77208 8148 ft 292 kts 354°
2026-05-01 15:07 44.88512 -0.77442 8790 ft 295 kts 354°
2026-05-01 15:08 44.90574 -0.77689 9467 ft 299 kts 353°
2026-05-01 15:08 44.92665 -0.77949 10111 ft 304 kts 353°
2026-05-01 15:08 44.94807 -0.78218 10466 ft 318 kts 353°
2026-05-01 15:08 44.97088 -0.78507 10602 ft 339 kts 353°
2026-05-01 15:09 44.99504 -0.78812 10729 ft 358 kts 353°
2026-05-01 15:09 45.02030 -0.79125 11092 ft 368 kts 353°
2026-05-01 15:09 45.04592 -0.79441 11636 ft 372 kts 353°
2026-05-01 15:09 45.07178 -0.79765 12210 ft 375 kts 353°
2026-05-01 15:10 45.09786 -0.80086 12788 ft 378 kts 353°
2026-05-01 15:10 45.15068 -0.80733 13931 ft 384 kts 353°
2026-05-01 15:10 45.17744 -0.81064 14429 ft 388 kts 353°
2026-05-01 15:11 45.20440 -0.81401 14932 ft 390 kts 353°
2026-05-01 15:11 45.25859 -0.82310 15954 ft 394 kts 351°
2026-05-01 15:11 45.28583 -0.82860 16462 ft 397 kts 350°
2026-05-01 15:12 45.31322 -0.83427 16972 ft 399 kts 350°
2026-05-01 15:12 45.36846 -0.84547 17953 ft 404 kts 351°
2026-05-01 15:12 45.39640 -0.85097 18435 ft 406 kts 351°
2026-05-01 15:13 45.48113 -0.86715 19626 ft 413 kts 351°
2026-05-01 15:14 45.53840 -0.87807 20434 ft 417 kts 351°
2026-05-01 15:14 45.56719 -0.88364 20831 ft 419 kts 351°
2026-05-01 15:14 45.62487 -0.89488 21605 ft 424 kts 351°
2026-05-01 15:15 45.68400 -0.90643 22375 ft 428 kts 351°
2026-05-01 15:15 45.74300 -0.91787 23117 ft 433 kts 351°
2026-05-01 15:16 45.80302 -0.92954 23845 ft 438 kts 351°
2026-05-01 15:16 45.86368 -0.94146 24446 ft 442 kts 351°
2026-05-01 15:17 45.92489 -0.95347 25063 ft 446 kts 351°
2026-05-01 15:18 46.01763 -0.97153 25977 ft 451 kts 351°
2026-05-01 15:18 46.04881 -0.97764 26275 ft 453 kts 350°
2026-05-01 15:19 46.14311 -0.99634 27157 ft 459 kts 350°
2026-05-01 15:19 46.20655 -1.00887 27729 ft 462 kts 350°
2026-05-01 15:19 46.23849 -1.01517 28004 ft 464 kts 350°
2026-05-01 15:20 46.30268 -1.02789 28524 ft 468 kts 350°
2026-05-01 15:20 46.33497 -1.03434 28766 ft 469 kts 350°
2026-05-01 15:20 46.36737 -1.04080 29003 ft 471 kts 350°
2026-05-01 15:21 46.39989 -1.04727 29228 ft 472 kts 350°
2026-05-01 15:21 46.43253 -1.05375 29438 ft 474 kts 350°
2026-05-01 15:21 46.46523 -1.06027 29707 ft 474 kts 350°
2026-05-01 15:21 46.49782 -1.06678 30018 ft 473 kts 350°
2026-05-01 15:22 46.56293 -1.07989 30578 ft 471 kts 350°
2026-05-01 15:22 46.59538 -1.08642 30865 ft 470 kts 350°
2026-05-01 15:22 46.62772 -1.09290 31154 ft 468 kts 350°
2026-05-01 15:23 46.65995 -1.09934 31438 ft 467 kts 350°
2026-05-01 15:23 46.69207 -1.10574 31731 ft 465 kts 350°
2026-05-01 15:23 46.72404 -1.11212 32022 ft 463 kts 350°
2026-05-01 15:23 46.75592 -1.11855 32316 ft 462 kts 349°
2026-05-01 15:24 46.78769 -1.12498 32601 ft 460 kts 349°
2026-05-01 15:24 46.81935 -1.13140 32875 ft 459 kts 349°
2026-05-01 15:24 46.85079 -1.13780 33157 ft 457 kts 349°
2026-05-01 15:24 46.88235 -1.14422 33432 ft 456 kts 349°
2026-05-01 15:25 46.91328 -1.15055 33697 ft 454 kts 349°
2026-05-01 15:25 46.94449 -1.15694 33963 ft 453 kts 349°
2026-05-01 15:25 46.97567 -1.16331 34156 ft 452 kts 349°
2026-05-01 15:25 47.00672 -1.16963 34190 ft 449 kts 349°
2026-05-01 15:26 47.06847 -1.18214 34184 ft 447 kts 349°
2026-05-01 15:26 47.10907 -1.19040 34185 ft 447 kts 349°
2026-05-01 15:27 47.13428 -1.19934 32536 ft 453 kts 336°
2026-05-01 15:28 47.19529 -1.21637 32645 ft 448 kts 352°
2026-05-01 15:28 47.22645 -1.22001 32787 ft 451 kts 353°
2026-05-01 15:28 47.25779 -1.22326 32968 ft 453 kts 353°
2026-05-01 15:29 47.32043 -1.23250 33472 ft 451 kts 350°
2026-05-01 15:29 47.35146 -1.23872 33753 ft 449 kts 349°
2026-05-01 15:29 47.41316 -1.25249 34169 ft 448 kts 348°
2026-05-01 15:30 47.46426 -1.26381 34179 ft 447 kts 349°
2026-05-01 15:31 47.65957 -1.30442 34181 ft 447 kts 349°
2026-05-01 15:32 47.78294 -1.33026 34193 ft 448 kts 349°
2026-05-01 15:34 47.95782 -1.36712 34201 ft 449 kts 349°